Regional Weather Roundup
Issued by NWS

Home | Current Version | Previous Version | Text Only | Print | Product List | Glossary Off
Versions: 1 2 3 4 5 6 7 8 9 10 11 12 13 14 15 16 17 18 19 20 21 22 23 24 25 26 27 28 29 30 31 32 33 34 35 36 37 38 39 40 41 42 43 44 45 46 47 48 49 50

000
ASUS45 KPSR 060010
RWRAZ

ARIZONA REGIONAL HOURLY WEATHER ROUNDUP
NATIONAL WEATHER SERVICE PHOENIX AZ
500 PM MST TUE MAY 05 2015

NOTE: FAIR INDICATES FEW OR NO CLOUDS BELOW 12,000 FEET WITH NO
SIGNIFICANT WEATHER AND/OR OBSTRUCTIONS TO VISIBILITY.

AZZ001>003-036-060100-
NORTHWEST ARIZONA

CITY           SKY/WX    TMP DP  RH WIND       PRES   REMARKS
BULLHEAD CITY  SUNNY     86  46  25 S16G23    29.71F
KINGMAN        SUNNY     76  41  28 SW21G29   29.84F
6HR MIN TEMP:  69; 6HR MAX TEMP:  76;

$$

AZZ004>008-015-016-018-060100-
NORTH CENTRAL ARIZONA

CITY           SKY/WX    TMP DP  RH WIND       PRES   REMARKS
GRAND CANYON   PTSUNNY   60  39  45 W15G24    29.94F
6HR MIN TEMP:  50; 6HR MAX TEMP:  60;

WILLIAMS       PTSUNNY   55  45  67 SW16      30.05R
PRESCOTT       MOSUNNY   66  39  37 SW22      29.93S
6HR MIN TEMP:  57; 6HR MAX TEMP:  68; 6HR PCP:  0.01;

FLAGSTAFF      PTSUNNY   51  46  83 SW15G22   30.00R
6HR MIN TEMP:  45; 6HR MAX TEMP:  53; 6HR PCP:  0.16;

PAYSON         CLOUDY    61  46  59 S6        29.99S
PAGE           CLOUDY    66  43  43 CALM      29.80F
6HR MIN TEMP:  65; 6HR MAX TEMP:  73; 6HR PCP: TRACE;

$$

AZZ009>014-017-060100-
NORTHEAST ARIZONA

CITY           SKY/WX    TMP DP  RH WIND       PRES   REMARKS
WINSLOW        PTSUNNY   62  44  51 SW18G32   29.90R
6HR MIN TEMP:  59; 6HR MAX TEMP:  68;

SAINT JOHNS    LGT RAIN  52  48  86 NW7       29.93R
6HR MIN TEMP:  51; 6HR MAX TEMP:  62; 6HR PCP:  0.04;

WINDOW ROCK    PTSUNNY   55  44  66 SW13      29.93F
6HR MIN TEMP:  49; 6HR MAX TEMP:  59; 6HR PCP:  0.05;

SHOW LOW       PTSUNNY   54  41  62 SW20G26   30.00R
$$

AZZ023-060100-
GREATER PHOENIX AREA

CITY           SKY/WX    TMP DP  RH WIND       PRES   REMARKS
PHOENIX        MOSUNNY   85  46  25 VRB5      29.78F
6HR MIN TEMP:  75; 6HR MAX TEMP:  85;

GLENDALE       MOSUNNY   84  46  26 SW12      29.80F
DEER VALLEY    SUNNY     80  44  27 W10G20    29.80F
6HR MIN TEMP:  71; 6HR MAX TEMP:  81;

SCOTTSDALE     SUNNY     81  45  28 SW12      29.81F
6HR MIN TEMP:  72; 6HR MAX TEMP:  82;

MESA-FALCON    MOSUNNY   82  46  28 SW12      29.80F
MESA-GATEWAY   MOSUNNY   81  46  30 SW7       29.83F
CHANDLER       MOSUNNY   82  45  26 S6        29.80F
$$

AZZ027-028-060100-
SOUTHWEST MARICOPA COUNTY AND PINAL COUNTY

CITY           SKY/WX    TMP DP  RH WIND       PRES   REMARKS
CASA GRANDE    SUNNY     82  46  28 N5        29.80S
6HR MIN TEMP:  73; 6HR MAX TEMP:  82;

$$

AZZ503-504-507>509-060100-
SOUTHEAST ARIZONA

CITY           SKY/WX    TMP DP  RH WIND       PRES   REMARKS
TUCSON         SUNNY     80  41  24 NW8       29.87F
6HR MIN TEMP:  73; 6HR MAX TEMP:  82;

RYAN FIELD       N/A     81  45  28 W9G18     29.85F
NOGALES        PTSUNNY   77  36  22 SW10G20   29.93S
6HR MIN TEMP:  72; 6HR MAX TEMP:  79;

DOUGLAS        PTSUNNY   74  34  23 W12       29.92S
6HR MIN TEMP:  70; 6HR MAX TEMP:  79;

SAFFORD        MOSUNNY   76  43  30 NW16      29.86F
6HR MIN TEMP:  70; 6HR MAX TEMP:  77;

$$

AZZ020-021-025-026-031-060100-
SOUTHWEST ARIZONA

CITY           SKY/WX    TMP DP  RH WIND       PRES   REMARKS
YUMA           PTSUNNY   90  35  14 S8        29.74F
6HR MIN TEMP:  79; 6HR MAX TEMP:  91;

$$

CAZ031-033-041-043-047-048-061-060100-
SOUTHERN CALIFORNIA

CITY           SKY/WX    TMP DP  RH WIND       PRES   REMARKS
DOWNTOWN L.A.  PTSUNNY   65  49  56 MISG      29.94F
6HR MIN TEMP:  64; 6HR MAX TEMP:  67;

L.A. AIRPORT   MOSUNNY   62  50  64 W13       29.95F
6HR MIN TEMP:  60; 6HR MAX TEMP:  65;

SAN DIEGO      PTSUNNY   65  48  54 NW9       29.96F
6HR MIN TEMP:  64; 6HR MAX TEMP:  68;

BURBANK        CLOUDY    64  47  53 S7        29.93F
6HR MIN TEMP:  60; 6HR MAX TEMP:  65;

ONTARIO        PTSUNNY   67  46  47 SW16G25   29.92F
6HR MIN TEMP:  62; 6HR MAX TEMP:  70;

RIVERSIDE      PTSUNNY   67  48  50 W13G21    29.92S
6HR MIN TEMP:  63; 6HR MAX TEMP:  72;

PALM SPRINGS   MOSUNNY   83  41  22 NW21G28   29.77S
6HR MIN TEMP:  76; 6HR MAX TEMP:  87;

EL CENTRO NAS  PTSUNNY   88  35  15 SW13      29.74F
6HR MIN TEMP:  80; 6HR MAX TEMP:  90;

IMPERIAL       MOSUNNY   88  39  17 SW6       29.72F
6HR MIN TEMP:  79; 6HR MAX TEMP:  89;

BLYTHE         SUNNY     88  35  15 S18G25    29.73F
6HR MIN TEMP:  77; 6HR MAX TEMP:  88; 6HR PCP: TRACE;

NEEDLES        SUNNY     87  39  18 S17G23    29.73F
6HR MIN TEMP:  79; 6HR MAX TEMP:  88;

$$

NVZ020-UTZ003-060100-
SOUTHERN NEVADA-UTAH

CITY           SKY/WX    TMP DP  RH WIND       PRES   REMARKS
LAS VEGAS      MOSUNNY   86  30  13 SW14G28   29.65F
6HR MIN TEMP:  75; 6HR MAX TEMP:  87;

SALT LAKE CITY PTSUNNY   67  44  43 CALM      29.75F
6HR MIN TEMP:  61; 6HR MAX TEMP:  68; 6HR PCP:  0.01;

$$

NMZ009-TXZ055-060100-
NEW MEXICO-WEST TEXAS

CITY           SKY/WX    TMP DP  RH WIND       PRES   REMARKS
ALBUQUERQUE    PTSUNNY   57  46  66 S13       29.90S
6HR MIN TEMP:  52; 6HR MAX TEMP:  63; 6HR PCP:  0.07;

EL PASO        MOSUNNY   79  28  15 W18G26    29.85F
6HR MIN TEMP:  71; 6HR MAX TEMP:  80;

$$


........................KEY........................
SKY/WX - SKY CONDITION/WEATHER
TMP    - TEMPERATURE IN FAHRENHEIT
DP     - DEW POINT IN FAHRENHEIT
RH     - RELATIVE HUMIDITY IN PERCENT
WIND   - DIRECTION AND SPEED IN MILES PER HOUR (MPH)
VRB    - VARIABLE WIND DIRECTION
PRES   - MEAN SEA LEVEL PRESSURE IN INCHES OF MERCURY
         F - FALLING PRESSURE   R - RISING PRESSURE
         S - STEADY PRESSURE
VSB    - VISIBILITY IN MILES
HX     - HEAT INDEX IN FAHRENHEIT
WCI    - WIND CHILL INDEX IN FAHRENHEIT
TC     - TEMPERATURE IN CELSIUS WHICH IS ALSO KNOWN AS
         TEMPERATURE IN CENTIGRADE
AFB    - AIR FORCE BASE
         LUKE AFB IS LUKE AIR FORCE BASE
         DAVIS-MONTHAN IS DAVIS-MONTHAN AIR FORCE BASE
NAS    - NAVAL AIR STATION
         EL CENTRO NAS IS EL CENTRO NAVAL AIR STATION
N/A    - NOT AVAILABLE




USA.gov is the U.S. government's official web portal to all federal, state and local government web resources and services.